Terminal Aerodrome Forecast
Issued by NWS Aberdeen, SD

Home | Current Version | Previous Version | Text Only | Print | Product List | Glossary On
Versions: 1 2 3 4 5 6 7 8 9 10 11 12 13 14 15 16 17 18 19 20 21 22 23 24 25 26 27 28 29 30 31 32 33 34 35 36 37 38 39 40 41 42 43
000
FTUS43 KABR 310500
TAFABR
TAF
KABR 310539Z 3106/0106 VRB05KT P6SM SKC WS015/02035KT
     FM310900 VRB05KT P6SM SKC
     FM311600 15011KT P6SM SKC
     FM010100 15013KT P6SM SCT250=

USA.gov is the U.S. government's official web portal to all federal, state and local government web resources and services.